{"data":{"norad_id":55612,"epoch":"2026-05-24T20:35:26.116224Z","epoch_age_seconds":80576,"freshness":"FRESH","line1":"1 55612U 23020AV  26144.85794116  .00000195  00000+0  16997-4 0  9994","line2":"2 55612  43.0084 284.4717 0002601 286.9800  73.0767 15.26739728180688","mean_motion":15.26739728,"eccentricity":0.0002601,"inclination_deg":43.0084,"raan_deg":284.4717,"arg_perigee_deg":286.98,"mean_anomaly_deg":73.0767,"bstar":1.6997e-5,"rev_number":18068,"period_min":94.318630319941,"perigee_km":483.78107736606,"apogee_km":487.35157583656,"semimajor_km":6863.7033266013,"source":"CELESTRAK","updated_at":"2026-05-25T13:38:17.843957Z"}}